Left ArrowRight Arrow

33.98154, -81.23621

Hourly Observations for June 14, 2024

Temp ( °F °C ) Dew Point ( °F °C ) Humidity (%) Winds ( mph kmh ) Pressure ( in mb ) Visibility ( mi km ) Precip ( " mm )
12:56 am 00:56 Clear 75 23.9 62 16.7 64 64 E 3 6 29.95 1014 10 16 0.00 0.00
1:56 am 01:56 Clear 69 20.6 63 17.2 81 81 Calm 29.94 1014 10 16 0.00 0.00
2:56 am 02:56 Clear 68 20 63 17.2 84 84 Calm 29.93 1014 10 16 0.00 0.00
3:56 am 03:56 Clear 66 18.9 63 17.2 90 90 Calm 29.94 1014 10 16 0.00 0.00
4:56 am 04:56 Clear 65 18.3 62 16.7 90 90 Calm 29.94 1014 10 16 0.00 0.00
5:56 am 05:56 Clear 64 17.8 62 16.7 93 93 SW 3 6 29.95 1014 10 16 0.00 0.00
6:56 am 06:56 Sunny 65 18.3 62 16.7 90 90 W 3 6 29.96 1015 10 16 0.00 0.00
7:56 am 07:56 Sunny 70 21.1 64 17.8 81 81 WSW 3 6 29.98 1015 10 16 0.00 0.00
8:56 am 08:56 Sunny 76 24.4 65 18.3 69 69 Calm 29.99 1016 10 16 0.00 0.00
9:56 am 09:56 Sunny 79 26.1 66 18.9 65 65 Calm 29.98 1015 10 16 0.00 0.00
10:56 am 10:56 Sunny 83 28.3 66 18.9 57 57 S 3 6 29.96 1015 10 16 0.00 0.00
11:56 am 11:56 Sunny 88 31.1 65 18.3 47 47 N 6 9 29.94 1014 10 16 0.00 0.00
12:56 pm 12:56 Mostly Sunny 90 32.2 64 17.8 42 42 VRB 6 9 29.93 1014 10 16 0.00 0.00
1:56 pm 13:56 Partly Cloudy 90 32.2 66 18.9 45 45 Calm 29.92 1013 10 16 0.00 0.00
2:56 pm 14:56 Partly Cloudy 90 32.2 66 18.9 45 45 WNW 6 9 29.90 1012 10 16 0.00 0.00
3:56 pm 15:56 Partly Cloudy 93 33.9 65 18.3 40 40 WNW 6 9 29.88 1012 10 16 0.00 0.00
4:56 pm 16:56 Partly Cloudy 94 34.4 66 18.9 40 40 Calm 29.87 1012 10 16 0.00 0.00
5:56 pm 17:56 Partly Cloudy 92 33.3 65 18.3 41 41 Calm 29.86 1011 10 16 0.00 0.00
6:56 pm 18:56 Mostly Sunny 92 33.3 62 16.7 37 37 WSW 5 7 29.86 1011 10 16 0.00 0.00
7:56 pm 19:56 Sunny 91 32.8 62 16.7 38 38 NNW 3 6 29.86 1011 10 16 0.00 0.00
8:56 pm 20:56 Clear 86 30 65 18.3 50 50 WSW 3 6 29.87 1011 10 16 0.00 0.00
9:56 pm 21:56 Clear 79 26.1 68 20 69 69 SSW 3 6 29.89 1012 10 16 0.00 0.00
10:56 pm 22:56 Clear 77 25 68 20 74 74 WSW 3 6 29.90 1013 10 16 0.00 0.00
11:56 pm 23:56 Clear 78 25.6 67 19.4 69 69 Calm 29.91 1013 10 16 0.00 0.00

Powered by Vaisala Xweather